Date,TemperatureHighF,TemperatureAvgF,TemperatureLowF,DewpointHighF,DewpointAvgF,DewpointLowF,HumidityHigh,HumidityAvg,HumidityLow,PressureMaxIn,PressureMinIn,WindSpeedMaxMPH,WindSpeedAvgMPH,GustSpeedMaxMPH,PrecipitationSumIn
2013-1-1,43.2,39.3,35.1,42.1,35.7,25.9,96,87,66,30.03,29.89,4,0,9,0.61
2013-1-2,42.8,37.7,35.8,41.7,35.3,32.5,96,91,83,30.08,29.89,3,0,13,0.03
2013-1-3,44.2,36.0,28.6,33.6,28.7,20.5,87,75,50,30.24,30.06,2,0,5,0.00
2013-1-4,43.3,30.6,23.7,26.4,19.0,14.0,83,63,40,30.32,30.24,3,0,10,0.00
2013-1-5,52.7,33.5,20.1,29.4,19.1,10.9,77,57,30,30.32,30.15,0,0,3,0.03
2013-1-6,43.0,38.2,35.2,37.9,32.1,26.8,91,79,66,30.19,30.04,3,0,7,0.05
2013-1-7,59.2,39.1,28.0,34.6,24.0,18.5,75,57,29,30.33,30.19,5,0,13,0.00
2013-1-8,61.3,42.4,28.6,34.4,21.7,7.0,69,46,19,30.32,30.20,5,0,14,0.00
2013-1-9,48.9,42.8,35.6,45.0,32.6,19.8,87,68,45,30.39,30.22,0,0,5,0.08
2013-1-10,68.2,58.1,47.8,54.2,48.2,43.9,89,71,55,30.39,30.14,9,2,19,0.00
2013-1-11,64.6,60.0,56.3,57.4,49.9,44.5,82,70,59,30.15,30.01,10,4,20,0.05
2013-1-12,74.1,65.5,56.5,61.6,56.8,51.3,89,74,60,30.09,29.96,3,0,9,0.00
2013-1-13,75.0,64.1,55.8,55.6,50.7,46.3,88,63,43,30.02,29.91,5,1,13,0.56
2013-1-14,59.2,47.0,39.9,56.5,45.7,38.9,96,95,88,30.20,29.98,2,0,8,2.29
2013-1-15,44.8,42.3,39.7,43.7,41.3,38.7,96,96,96,30.11,29.89,2,0,5,2.75
2013-1-16,53.2,47.7,44.1,52.1,46.6,43.0,96,96,96,30.00,29.83,5,0,9,0.20
2013-1-17,44.2,38.7,31.8,43.2,37.7,30.8,96,96,96,30.00,29.87,4,1,10,0.00
2013-1-18,46.6,34.9,25.0,40.5,28.6,22.4,96,79,63,30.45,30.33,1,0,6,0.10
2013-1-19,50.5,33.8,23.4,36.5,25.9,18.7,91,74,48,30.34,30.09,1,0,6,0.00
2013-1-20,54.7,40.2,30.4,34.5,27.9,23.1,80,63,37,30.11,30.04,4,0,9,0.00
2013-1-21,47.5,35.2,26.1,29.3,11.8,-10.7,81,45,19,30.08,29.98,7,2,14,0.00
2013-1-22,32.4,23.5,16.9,-5.4,-12.8,-18.4,19,19,19,30.24,30.07,7,2,13,0.00
2013-1-23,45.1,31.1,22.1,16.5,-3.0,-14.0,48,23,19,30.26,30.02,4,0,9,0.00
2013-1-24,42.8,32.3,21.2,27.4,3.6,-14.7,57,32,19,30.33,30.00,10,2,16,0.00
2013-1-25,31.6,27.0,19.8,28.2,11.8,-15.9,87,59,19,30.26,30.01,1,0,8,0.00
2013-1-26,43.7,33.5,28.0,38.3,27.5,20.5,93,80,57,30.28,30.09,2,0,8,0.13
2013-1-27,55.2,36.8,22.8,37.3,25.9,16.7,84,66,42,30.35,30.23,2,0,8,0.00
2013-1-28,63.0,48.9,38.3,42.5,36.7,30.2,81,64,43,30.27,30.14,2,0,8,0.00
2013-1-29,80.1,59.1,44.1,52.1,44.7,39.2,87,63,26,30.16,29.86,7,1,13,0.00
2013-1-30,64.8,57.0,42.1,58.3,51.2,36.1,96,82,64,29.84,29.46,10,4,18,1.94
2013-1-31,41.2,34.6,30.9,36.7,19.2,11.4,85,55,32,29.94,29.57,10,4,19,0.03